[[{"header":{"parameterUnit":"m.s-1","parameterCategory":1,"la1":30.2991,"la2":30.254,"lo1":-89.0895,"lo2":-89.0444,"dy":0.0017,"dx":0.0017,"nx":28,"ny":28,"refTime":"2026-02-13T09:00:00:Z","depth":0,"parameterNumber":2,"parameterNumberName":"U-component_of_WINDS"},"data":[0,0,0,0,0,0,0,0,0,0,0,0,0,0,0,0,0,0,0,0,0,0,0,0,0,0,0,0,0,0,0,0,0,0,0,0,0,0,0,0,0,0,0,0,0,0,0,0,0,0,0,0,0,0,0,0,0,0,-4.7514,-4.7515,0,-4.7632,-4.7633,-4.7635,-4.7622,-4.7621,-4.7619,-4.7617,-4.774,-4.7745,-4.775,0,0,0,0,0,0,0,0,0,0,0,0,0,-4.7279,-4.7284,-4.7514,-4.7515,-4.7517,-4.7632,-4.7634,-4.7635,-4.7623,-4.762,-4.7618,-4.7616,-4.7738,-4.7744,-4.775,0,0,0,0,0,0,0,0,0,0,0,0,0,-4.7388,-4.7285,-4.7513,-4.7524,-4.7526,-4.7632,-4.7634,-4.7636,-4.7623,-4.762,-4.7618,-4.7615,-4.7736,-4.7744,-4.7751,-4.7853,0,0,-4.7774,-4.7777,0,0,0,0,0,0,0,0,-4.7382,-4.7396,-4.7521,-4.7524,-4.7526,-4.761,-4.7596,-4.7709,-4.7624,-4.7587,-4.7617,-4.7614,-4.7699,-4.7709,-4.7738,-4.7859,-4.7864,-4.7775,-4.7779,-4.7782,-4.7785,0,0,0,0,0,0,0,-4.7374,-4.7391,-4.756,-4.7523,-4.7526,-4.7524,-4.7536,-4.7617,-4.7657,-4.759,-4.7589,-4.7603,-4.77,-4.7731,-4.7741,-4.7866,-4.7774,-4.7781,-4.7786,-4.7789,-4.8079,-4.8082,0,0,0,0,0,0,-4.7364,-4.7385,-4.7557,-4.7564,-4.7446,-4.7531,-4.7544,-4.7586,-4.7656,-4.7664,-4.7605,-4.7602,-4.7719,-4.7732,-4.7745,-4.7869,-4.7782,-4.7789,-4.7794,-4.8076,-4.808,-4.8083,0,0,0,0,0,0,-4.7359,-4.7379,-4.7552,-4.7474,-4.7496,-4.7538,-4.7584,-4.759,-4.762,-4.7668,-4.7675,-4.7629,-4.7717,-4.7734,-4.7827,-4.7873,-4.7793,-4.78,-4.8072,-4.8077,-4.8081,-4.8119,0,0,0,0,0,0,-4.7352,-4.7377,-4.7416,-4.7475,-4.75,-4.7631,-4.7587,-4.7594,-4.7633,-4.763,-4.7692,-4.77,-4.7716,-4.7815,-4.7834,-4.7882,-4.7806,-4.8068,-4.8074,-4.808,-4.8114,-4.8125,-4.8134,0,0,0,0,0,-4.7344,-4.7422,-4.7418,-4.7439,-4.7549,-4.7634,-4.7648,-4.7665,-4.7637,-4.7676,-4.7707,-4.7698,-4.7866,-4.7825,-4.7846,-4.7897,-4.8065,-4.8073,-4.8079,-4.8109,-4.8123,-4.8134,0,0,0,0,0,0,-4.7367,-4.743,-4.7426,-4.7526,-4.7574,-4.7631,-4.7681,-4.7678,-4.7736,-4.7731,-4.775,-4.7764,-4.7857,-4.7887,-4.784,-4.8001,-4.7962,-4.7974,-4.7977,-4.799,-4.8,-4.799,-4.7812,0,0,0,0,0,-4.7383,-4.7446,-4.7498,-4.7581,-4.7606,-4.764,-4.7677,-4.7686,-4.7737,-4.7758,-4.7796,-4.7846,-4.7911,-4.7953,-4.8014,-4.8119,-4.8133,-4.8165,-4.8175,-4.8183,-4.8192,-4.825,-4.8265,-4.8107,-4.8107,-4.8107,0,0,-4.7418,-4.7461,-4.7499,-4.7587,-4.7625,-4.769,-4.7657,-4.7727,-4.7775,-4.7769,-4.7858,-4.7888,-4.7946,-4.8045,-4.8091,-4.8072,-4.8239,-4.8192,-4.8198,-4.8203,-4.8259,-4.8274,-4.8288,-4.8112,-4.8111,-4.811,0,0,-4.7515,-4.7553,-4.7627,-4.7667,-4.7726,-4.7748,-4.7766,-4.7824,-4.7844,-4.7934,-4.793,-4.7989,-4.8099,-4.8141,-4.8177,-4.8292,-4.8286,-4.8312,-4.8363,-4.842,-4.8432,-4.8443,-4.8484,-4.8498,-4.8321,-4.8322,-4.8322,0,-4.7551,-4.7648,-4.7665,-4.7736,-4.7775,-4.7773,-4.7847,-4.7886,-4.7962,-4.799,-4.7969,-4.8107,-4.8147,-4.8255,-4.8284,-4.8313,-4.8334,-4.8304,-4.8429,-4.844,-4.8451,-4.849,-4.8505,-4.8324,-4.8324,-4.8324,-4.8323,0,-4.7689,-4.7757,-4.7809,-4.7883,-4.7928,-4.8001,-4.803,-4.8074,-4.808,-4.8105,-4.8198,-4.8245,-4.8316,-4.8343,-4.835,-4.8454,-4.8441,-4.8424,-4.8385,-4.8468,-4.8505,-4.8521,-4.8328,-4.8327,-4.8326,-4.8326,0,0,-4.7801,-4.7885,-4.7904,-4.7937,-4.8004,-4.8057,-4.813,-4.82,-4.8237,-4.8292,-4.8354,-4.8448,-4.8433,-4.8474,-4.8486,-4.8536,-4.8624,-4.8513,-4.8515,-4.8531,-4.8742,-4.8752,-4.8769,-4.8621,-4.8624,-4.8626,-4.8736,0,-4.7903,-4.8032,-4.8051,-4.8165,-4.8228,-4.8228,-4.8292,-4.834,-4.8366,-4.8424,-4.8453,-4.852,-4.8496,-4.852,-4.857,-4.8602,-4.8666,-4.8595,-4.8679,-4.8682,-4.8662,-4.8789,-4.88,-4.8902,-4.8751,-4.8753,-4.8755,0,-4.8039,-4.8096,-4.8216,-4.8275,-4.8302,-4.836,-4.8426,-4.8481,-4.8537,-4.8552,-4.8599,-4.8605,-4.8682,-4.8642,-4.8749,-4.87,-4.8736,-4.8758,-4.8762,-4.8769,-4.8722,-4.8798,-4.8934,-4.8949,-4.8778,-4.8776,-4.8775,0,-4.8108,-4.8215,-4.8301,-4.833,-4.8401,-4.8441,-4.8473,-4.8526,-4.8567,-4.8625,-4.8652,-4.872,-4.8756,-4.8808,-4.8833,-4.8801,-4.8939,-4.89,-4.8954,-4.8953,-4.8981,-4.8978,-4.9124,-4.9007,-4.9007,-4.9006,-4.9006,0,-4.8219,-4.8292,-4.8333,-4.8385,-4.8468,-4.849,-4.8572,-4.8602,-4.865,-4.8709,-4.8714,-4.877,-4.8799,-4.886,-4.888,-4.8966,-4.8983,-4.8998,-4.9002,-4.8996,-4.8994,-4.9019,-4.9012,-4.901,-4.9009,-4.9009,-4.9008,0,-4.8308,-4.8339,-4.8432,-4.8492,-4.8509,-4.8567,-4.8619,-4.8671,-4.8698,-4.8773,-4.8792,-4.8834,-4.8906,-4.8936,-4.9024,-4.9038,-4.9136,-4.9135,-4.9117,-4.9118,-4.9169,-4.9164,-4.9334,-4.9358,-4.9226,-4.9228,-4.9229,0,-4.8376,-4.8433,-4.8499,-4.8539,-4.8572,-4.8636,-4.8678,-4.8703,-4.8747,-4.8816,-4.886,-4.8932,-4.899,-4.9105,-4.9144,-4.9212,-4.9213,-4.9268,-4.9223,-4.9216,-4.9212,-4.9208,-4.9214,-4.9275,-4.9277,-4.9278,-4.9279,0,-4.8494,-4.8507,-4.8567,-4.8633,-4.8683,-4.8737,-4.8789,-4.8822,-4.8855,-4.8904,-4.8978,-4.9023,-4.9114,-4.9185,-4.9256,-4.929,-4.929,-4.9293,-4.9309,-4.9303,-4.9289,-4.9296,-4.9138,-4.9288,-4.9287,-4.9287,-4.9286,-4.9286,-4.8574,-4.8625,-4.8679,-4.8747,-4.8789,-4.8838,-4.889,-4.8923,-4.8985,-4.906,-4.9071,-4.915,-4.9206,-4.9301,-4.9338,-4.94,-4.9386,-4.9409,-4.9415,-4.942,-4.9423,-4.9281,-4.9413,-4.9413,-4.9413,-4.9413,-4.9412,0,-4.8691,-4.8727,-4.8789,-4.8862,-4.8915,-4.8912,-4.897,-4.9015,-4.9084,-4.9136,-4.9193,-4.9278,-4.9348,-4.9394,-4.9464,-4.9506,-4.9508,-4.9523,-4.952,-4.9528,-4.9431,-4.941,-4.9521,-4.9521,-4.952,-4.952,-4.952,-4.952,-4.8758,-4.8843,-4.8863,-4.8969,-4.9005,-4.9081,-4.9115,-4.9161,-4.9202,-4.9296,-4.9354,-4.9384,-4.9433,-4.9508,-4.9573,-4.9584,-4.961,-4.9626,-4.9637,-4.9546,-4.9534,-4.9523,-4.9503,-4.9632,-4.9632,-4.9728,-4.9728,-4.9729]},{"header":{"parameterUnit":"m.s-1","parameterCategory":1,"la1":30.2991,"la2":30.254,"lo1":-89.0895,"lo2":-89.0444,"dy":0.0017,"dx":0.0017,"nx":28,"ny":28,"refTime":"2026-02-13T09:00:00:Z","depth":0,"parameterNumber":3,"parameterNumberName":"V-component_of_WINDS"},"data":[0,0,0,0,0,0,0,0,0,0,0,0,0,0,0,0,0,0,0,0,0,0,0,0,0,0,0,0,0,0,0,0,0,0,0,0,0,0,0,0,0,0,0,0,0,0,0,0,0,0,0,0,0,0,0,0,0,0,2.4078,2.408,0,2.4191,2.4192,2.4193,2.4236,2.4236,2.4235,2.4235,2.4348,2.4351,2.4354,0,0,0,0,0,0,0,0,0,0,0,0,0,2.3902,2.3905,2.4078,2.408,2.4081,2.419,2.4192,2.4193,2.4236,2.4236,2.4235,2.4235,2.4347,2.4351,2.4355,0,0,0,0,0,0,0,0,0,0,0,0,0,2.3993,2.3906,2.4078,2.4116,2.412,2.419,2.4192,2.4194,2.4236,2.4236,2.4235,2.4235,2.4346,2.435,2.4355,2.4396,0,0,2.437,2.4373,0,0,0,0,0,0,0,0,2.3988,2.3999,2.4109,2.4113,2.4118,2.4199,2.4171,2.4261,2.4236,2.4192,2.4235,2.4234,2.4299,2.4307,2.4329,2.4401,2.4406,2.4371,2.4374,2.4376,2.4377,0,0,0,0,0,0,0,2.3981,2.3995,2.4123,2.411,2.4116,2.4127,2.414,2.4189,2.4247,2.4196,2.4199,2.4212,2.4301,2.4325,2.4332,2.4407,2.4371,2.4375,2.4378,2.438,2.4522,2.4523,0,0,0,0,0,0,2.3969,2.3989,2.4119,2.4126,2.4051,2.4131,2.4145,2.4173,2.4246,2.4257,2.4212,2.4214,2.4316,2.4327,2.4337,2.4392,2.4376,2.4381,2.4384,2.4522,2.4523,2.4524,0,0,0,0,0,0,2.3965,2.398,2.4115,2.4059,2.4077,2.4134,2.4166,2.4176,2.4199,2.4259,2.4269,2.4225,2.4316,2.433,2.4382,2.4396,2.4383,2.4387,2.4521,2.4522,2.4523,2.45,0,0,0,0,0,0,2.396,2.3978,2.3994,2.4059,2.408,2.4157,2.4167,2.4178,2.4208,2.4211,2.4274,2.4284,2.4317,2.4374,2.4387,2.4403,2.4391,2.452,2.4521,2.4523,2.45,2.45,2.4501,0,0,0,0,0,2.3953,2.3981,2.3994,2.401,2.41,2.4158,2.417,2.4208,2.4209,2.4226,2.4264,2.4282,2.4392,2.4379,2.4394,2.4411,2.4519,2.4521,2.4523,2.45,2.45,2.4501,0,0,0,0,0,0,2.3914,2.399,2.4005,2.4055,2.41,2.4165,2.4187,2.4207,2.4252,2.4252,2.4297,2.4311,2.4361,2.4391,2.4375,2.4456,2.4457,2.4462,2.4435,2.4436,2.4436,2.4428,2.4395,0,0,0,0,0,2.3912,2.3953,2.4017,2.4055,2.4077,2.4128,2.4155,2.4181,2.4229,2.4248,2.429,2.4336,2.4381,2.441,2.4455,2.4505,2.452,2.4524,2.4525,2.4525,2.4528,2.4561,2.4564,2.4529,2.4529,2.4529,0,0,2.3907,2.3953,2.3976,2.4049,2.4086,2.4129,2.4144,2.4187,2.4219,2.4254,2.4307,2.434,2.4394,2.4446,2.4471,2.4473,2.4542,2.4527,2.4527,2.453,2.4563,2.4566,2.4569,2.4531,2.453,2.453,0,0,2.3919,2.3958,2.3996,2.4034,2.4092,2.4127,2.4136,2.4199,2.4223,2.4277,2.4305,2.4344,2.4421,2.446,2.4489,2.4521,2.454,2.4534,2.4537,2.4568,2.4571,2.4573,2.4587,2.4591,2.4538,2.4538,2.4538,0,2.3905,2.397,2.4012,2.4055,2.4088,2.4123,2.4163,2.4198,2.4267,2.4289,2.429,2.439,2.4429,2.4492,2.4501,2.4522,2.4536,2.4527,2.4567,2.457,2.4573,2.4587,2.4592,2.4537,2.4537,2.4537,2.4537,0,2.3952,2.3997,2.402,2.4089,2.4124,2.4164,2.4213,2.4244,2.4268,2.4302,2.4359,2.4407,2.4465,2.4481,2.4504,2.4549,2.4549,2.4558,2.456,2.4575,2.4589,2.4594,2.4536,2.4536,2.4536,2.4537,0,0,2.394,2.4035,2.4043,2.4076,2.4144,2.418,2.4224,2.4281,2.4308,2.4355,2.4394,2.4461,2.4471,2.4504,2.4532,2.4559,2.4585,2.4566,2.4568,2.4569,2.4642,2.4636,2.4641,2.4598,2.46,2.46,2.4638,0,2.3963,2.4044,2.4085,2.4148,2.4192,2.4229,2.4267,2.4314,2.4349,2.4392,2.443,2.4477,2.4485,2.4507,2.4535,2.4576,2.4601,2.4574,2.4637,2.4638,2.4623,2.4648,2.464,2.4673,2.4644,2.4644,2.4645,0,2.4,2.405,2.4118,2.4186,2.4206,2.424,2.4298,2.4338,2.4393,2.4416,2.4456,2.4484,2.4534,2.4532,2.4602,2.4583,2.4611,2.4636,2.4638,2.4646,2.4643,2.4658,2.4685,2.469,2.4654,2.4653,2.4652,0,2.3988,2.4072,2.4125,2.4152,2.4231,2.4255,2.4289,2.4344,2.4377,2.4428,2.445,2.4505,2.4536,2.4579,2.4622,2.4616,2.4688,2.4689,2.4711,2.471,2.4724,2.4723,2.4757,2.474,2.474,2.474,2.474,0,2.401,2.405,2.4121,2.4153,2.4201,2.4249,2.4295,2.4332,2.4381,2.4423,2.4457,2.4495,2.4549,2.4594,2.4628,2.4683,2.4696,2.4717,2.4726,2.4715,2.4712,2.4735,2.4734,2.4741,2.4741,2.4741,2.4741,0,2.4003,2.4052,2.4113,2.4184,2.4204,2.4236,2.4298,2.4331,2.4369,2.4421,2.4436,2.4496,2.4551,2.4599,2.4671,2.4694,2.4751,2.4761,2.4733,2.4738,2.4758,2.4756,2.4808,2.4819,2.4793,2.4793,2.4793,0,2.4014,2.4047,2.4124,2.4155,2.4189,2.4238,2.4273,2.4322,2.4358,2.4426,2.4452,2.451,2.456,2.4647,2.4697,2.4754,2.4766,2.4781,2.4775,2.4764,2.4769,2.4767,2.4772,2.4781,2.4781,2.4781,2.4781,0,2.403,2.4053,2.4103,2.4163,2.4205,2.4253,2.4303,2.4326,2.4385,2.4423,2.4482,2.452,2.4597,2.4655,2.4718,2.4754,2.4778,2.4783,2.4791,2.4781,2.4764,2.4776,2.4736,2.4781,2.4781,2.4781,2.4781,2.4781,2.4034,2.4066,2.4127,2.4182,2.4226,2.4272,2.4309,2.4353,2.4403,2.447,2.4496,2.4556,2.4615,2.4702,2.4739,2.4787,2.4791,2.4802,2.4805,2.4807,2.4807,2.4756,2.4799,2.4799,2.4799,2.4799,2.4799,0,2.4053,2.4094,2.4145,2.4216,2.426,2.4281,2.4338,2.4374,2.4427,2.448,2.4529,2.4598,2.4656,2.4712,2.4774,2.4802,2.4815,2.4817,2.4816,2.4824,2.4799,2.4787,2.4806,2.4806,2.4806,2.4806,2.4806,2.4805,2.4068,2.4125,2.4157,2.4237,2.4279,2.4339,2.4371,2.4415,2.4458,2.4534,2.4583,2.462,2.4675,2.4742,2.4797,2.4812,2.4834,2.4833,2.4851,2.4827,2.4825,2.4824,2.4813,2.4837,2.4837,2.4872,2.4873,2.4873]}]]